Weather History for KCSQ - March, 2014

Change the Weather History Date:

Tuesday, March 25, 2014

  Actual Average Record
Temperature  
Mean Temperature 26 °F -  
Max Temperature 32 °F 52 °F 80 °F (2007)
Min Temperature 19 °F 32 °F 7 °F (1960)
Degree Days  
Heating Degree Days 40    
Moisture  
Dew Point 9 °F    
Average Humidity 55    
Maximum Humidity 93    
Minimum Humidity 29    
Precipitation  
Precipitation 0.00 in - - ()
Sea Level Pressure  
Sea Level Pressure 30.25 in    
Wind  
Wind Speed 12 mph (NW)    
Max Wind Speed 28 mph    
Max Gust Speed 36 mph    
Visibility 10 miles    
Events Snow    
Averages and records for this station are not official NWS values.
T = Trace of Precipitation, MM = Missing Value Source: NWS Daily Summary

Daily Weather History Graph

Daily Weather History Graph

Search for Another Location

Airport or City:

Trip Planner

Search our weather history database for the weather conditions in past years. The results will help you decide how hot, cold, wet, or windy it might be!

Date:

Astronomy

Mar. 25, 2014 Rise Set
Actual Time 7:12 AM CDT 7:34 PM CDT
Civil Twilight 6:44 AM CDT 8:02 PM CDT
Nautical Twilight 6:12 AM CDT 8:34 PM CDT
Astronomical Twilight 5:39 AM CDT 9:08 PM CDT
Moon 3:37 AM CDT (3/25) 2:04 PM CDT (3/25)
Length of Visible Light 13h 17m
Length of Day
12h 22m
Waning Crescent, 32% of the Moon is Illuminated
Mar 25
Waning Crescent
Mar 30
New
Apr 7
First Quarter
Apr 15
Full
Apr 22
Last Quarter

Hourly Weather History & Observations

Time (CDT) Temp. Windchill Dew Point Humidity Pressure Visibility Wind Dir Wind Speed Gust Speed Precip Events Conditions
12:15 AM 21.2 °F 10.9 °F 15.8 °F 80% 30.19 in 10.0 mi WNW 9.2 mph - N/A   Clear
12:35 AM 21.2 °F 10.9 °F 15.8 °F 80% 30.19 in 10.0 mi WNW 9.2 mph - N/A   Clear
12:55 AM 21.2 °F 11.7 °F 15.8 °F 80% 30.19 in 10.0 mi NW 8.1 mph - N/A   Scattered Clouds
1:15 AM 21.2 °F 11.7 °F 15.8 °F 80% 30.20 in 10.0 mi NW 8.1 mph - N/A   Mostly Cloudy
1:35 AM 23.0 °F 14.7 °F 17.6 °F 80% 30.20 in 10.0 mi NW 6.9 mph - N/A   Overcast
1:55 AM 24.8 °F 14.6 °F 17.6 °F 74% 30.22 in 10.0 mi NW 10.4 mph - N/A   Overcast
2:15 AM 24.8 °F 14.0 °F 19.4 °F 80% 30.22 in 7.0 mi NW 11.5 mph - N/A Snow Light Snow
2:35 AM 26.6 °F 15.7 °F 21.2 °F 80% 30.21 in 9.0 mi NW 12.7 mph - N/A   Overcast
2:55 AM 24.8 °F 14.0 °F 19.4 °F 80% 30.21 in 10.0 mi NW 11.5 mph - N/A   Overcast
3:15 AM 23.0 °F 12.4 °F 19.4 °F 86% 30.21 in 10.0 mi WNW 10.4 mph - N/A   Overcast
3:35 AM 23.0 °F 13.1 °F 21.2 °F 93% 30.21 in 10.0 mi WNW 9.2 mph - N/A   Overcast
3:55 AM 23.0 °F 13.1 °F 19.4 °F 86% 30.21 in 10.0 mi WNW 9.2 mph - N/A   Scattered Clouds
4:15 AM 21.2 °F 11.7 °F 17.6 °F 86% 30.22 in 10.0 mi WNW 8.1 mph - N/A   Clear
4:35 AM 19.4 °F 8.6 °F 15.8 °F 86% 30.21 in 10.0 mi WNW 9.2 mph - N/A   Clear
4:55 AM 19.4 °F 7.9 °F 17.6 °F 93% 30.22 in 10.0 mi WNW 10.4 mph - N/A   Clear
5:15 AM 21.2 °F 9.5 °F 17.6 °F 86% 30.23 in 10.0 mi WNW 11.5 mph - N/A   Clear
5:35 AM 23.0 °F 11.1 °F 19.4 °F 86% 30.23 in 10.0 mi WNW 12.7 mph 19.6 mph N/A   Clear
5:50 AM 23.0 °F 10.1 °F 17.6 °F 80% 30.24 in 10.0 mi NW 15.0 mph - N/A   Partly Cloudy
6:15 AM 23.0 °F 10.1 °F 17.6 °F 80% 30.25 in 10.0 mi NW 15.0 mph - N/A   Partly Cloudy
6:35 AM 21.2 °F 8.3 °F 17.6 °F 86% 30.26 in 10.0 mi NW 13.8 mph - N/A   Clear
6:55 AM 21.2 °F 7.3 °F 15.8 °F 80% 30.26 in 10.0 mi NW 16.1 mph - N/A   Clear
7:15 AM 21.2 °F 8.9 °F 15.8 °F 80% 30.26 in 10.0 mi NW 12.7 mph - N/A   Clear
7:35 AM 21.2 °F 7.3 °F 15.8 °F 80% 30.27 in 10.0 mi NW 16.1 mph - N/A   Partly Cloudy
7:55 AM 21.2 °F 6.4 °F 15.8 °F 80% 30.28 in 10.0 mi NW 18.4 mph 24.2 mph N/A   Clear
8:15 AM 21.2 °F 6.8 °F 15.8 °F 80% 30.29 in 10.0 mi NW 17.3 mph 25.3 mph N/A   Clear
8:35 AM 23.0 °F 8.0 °F 15.8 °F 74% 30.29 in 10.0 mi NW 20.7 mph 28.8 mph N/A   Clear
8:55 AM 21.2 °F 6.0 °F 14.0 °F 74% 30.30 in 10.0 mi NW 19.6 mph 28.8 mph N/A   Mostly Cloudy
9:15 AM 23.0 °F 7.2 °F 12.2 °F 63% 30.31 in 10.0 mi NNW 23.0 mph 32.2 mph N/A   Mostly Cloudy
9:35 AM 23.0 °F 7.2 °F 10.4 °F 59% 30.31 in 10.0 mi NNW 23.0 mph 31.1 mph N/A   Overcast
9:55 AM 23.0 °F 6.0 °F 10.4 °F 59% 30.32 in 10.0 mi NW 27.6 mph 35.7 mph N/A   Mostly Cloudy
10:15 AM 23.0 °F 6.3 °F 8.6 °F 54% 30.33 in 10.0 mi NNW 26.5 mph - N/A   Mostly Cloudy
10:35 AM 24.8 °F 9.6 °F 8.6 °F 50% 30.33 in 10.0 mi NNW 23.0 mph 29.9 mph N/A   Mostly Cloudy
10:50 AM 24.8 °F 10.3 °F 8.6 °F 50% 30.34 in 10.0 mi NNW 20.7 mph 28.8 mph N/A   Mostly Cloudy
11:15 AM 26.6 °F 12.7 °F 5.0 °F 40% 30.34 in 10.0 mi NNW 20.7 mph 27.6 mph N/A   Clear
11:35 AM 26.6 °F 12.7 °F 5.0 °F 40% 30.34 in 10.0 mi NW 20.7 mph 28.8 mph N/A   Clear
11:55 AM 26.6 °F 12.0 °F 3.2 °F 37% 30.34 in 10.0 mi NW 23.0 mph - N/A   Clear
12:15 PM 26.6 °F 14.7 °F 3.2 °F 37% 30.34 in 10.0 mi NNW 15.0 mph 27.6 mph N/A   Clear
12:35 PM 28.4 °F 17.0 °F 3.2 °F 34% 30.33 in 10.0 mi NNW 15.0 mph 29.9 mph N/A   Clear
1:10 PM 28.4 °F 17.0 °F 3.2 °F 34% 30.32 in 10.0 mi NW 15.0 mph 28.8 mph N/A   Clear
1:35 PM 30.2 °F 19.3 °F 5.0 °F 34% 30.32 in 10.0 mi WNW 15.0 mph 23.0 mph N/A   Clear
1:55 PM 30.2 °F 18.5 °F 1.4 °F 29% 30.31 in 10.0 mi NNW 17.3 mph 27.6 mph N/A   Clear
2:15 PM 30.2 °F 19.8 °F 3.2 °F 32% 30.30 in 10.0 mi NNW 13.8 mph 25.3 mph N/A   Clear
2:35 PM 32.0 °F 20.8 °F 3.2 °F 30% 30.29 in 10.0 mi NW 17.3 mph 23.0 mph N/A   Clear
2:55 PM 32.0 °F 21.6 °F 3.2 °F 30% 30.29 in 10.0 mi NW 15.0 mph 24.2 mph N/A   Clear
3:15 PM 32.0 °F 21.6 °F 5.0 °F 32% 30.27 in 10.0 mi WNW 15.0 mph 23.0 mph N/A   Clear
3:35 PM 32.0 °F 20.5 °F 3.2 °F 30% 30.27 in 10.0 mi NW 18.4 mph - N/A   Clear
3:55 PM 32.0 °F 21.6 °F 5.0 °F 32% 30.26 in 10.0 mi WNW 15.0 mph 21.9 mph N/A   Clear
4:15 PM 32.0 °F 22.1 °F 3.2 °F 30% 30.26 in 10.0 mi NW 13.8 mph 23.0 mph N/A   Clear
4:35 PM 32.0 °F 22.5 °F 3.2 °F 30% 30.25 in 10.0 mi NW 12.7 mph 18.4 mph N/A   Clear
4:55 PM 32.0 °F 20.8 °F 3.2 °F 30% 30.24 in 10.0 mi NW 17.3 mph 23.0 mph N/A   Clear
5:15 PM 32.0 °F 22.1 °F 3.2 °F 30% 30.24 in 10.0 mi NW 13.8 mph 19.6 mph N/A   Clear
5:35 PM 32.0 °F 23.0 °F 3.2 °F 30% 30.23 in 10.0 mi NW 11.5 mph - N/A   Clear
5:55 PM 32.0 °F 21.6 °F 3.2 °F 30% 30.23 in 10.0 mi NW 15.0 mph - N/A   Clear
6:15 PM 32.0 °F 24.8 °F 3.2 °F 30% 30.23 in 10.0 mi NW 8.1 mph 13.8 mph N/A   Clear
6:35 PM 32.0 °F 24.2 °F 3.2 °F 30% 30.22 in 10.0 mi WNW 9.2 mph - N/A   Clear
6:55 PM 32.0 °F 25.6 °F 3.2 °F 30% 30.22 in 10.0 mi NW 6.9 mph - N/A   Clear
7:15 PM 30.2 °F 24.3 °F 3.2 °F 32% 30.21 in 10.0 mi WNW 5.8 mph - N/A   Clear
7:35 PM 30.2 °F 24.3 °F 3.2 °F 32% 30.21 in 10.0 mi West 5.8 mph - N/A   Clear
7:55 PM 28.4 °F 22.2 °F 1.4 °F 31% 30.20 in 10.0 mi WNW 5.8 mph - N/A   Clear
8:15 PM 28.4 °F - 1.4 °F 31% 30.20 in 10.0 mi Calm Calm - N/A   Clear
8:35 PM 28.4 °F - 1.4 °F 31% 30.20 in 10.0 mi Calm Calm - N/A   Clear
8:55 PM 28.4 °F - -0.4 °F 29% 30.21 in 10.0 mi Calm Calm - N/A   Clear
9:15 PM 28.4 °F - -0.4 °F 29% 30.21 in 10.0 mi Calm Calm - N/A   Clear
9:35 PM 23.0 °F - 3.2 °F 43% 30.21 in 8.0 mi Calm Calm - N/A   Clear
9:55 PM 23.0 °F 18.4 °F 3.2 °F 43% 30.21 in 10.0 mi SSW 3.5 mph - N/A   Clear
10:15 PM 23.0 °F 18.4 °F 3.2 °F 43% 30.20 in 10.0 mi SSW 3.5 mph - N/A   Clear
10:35 PM 23.0 °F - 3.2 °F 43% 30.21 in 10.0 mi Calm Calm - N/A   Scattered Clouds
10:55 PM 21.2 °F 16.4 °F 3.2 °F 46% 30.21 in 10.0 mi SSE 3.5 mph - N/A   Partly Cloudy
11:15 PM 19.4 °F 14.3 °F 5.0 °F 54% 30.20 in 10.0 mi SSE 3.5 mph - N/A   Clear
11:35 PM 19.4 °F 11.5 °F 5.0 °F 54% 30.20 in 10.0 mi SSE 5.8 mph - N/A   Clear
11:55 PM 19.4 °F 12.8 °F 5.0 °F 54% 30.20 in 10.0 mi SSE 4.6 mph - N/A   Clear